Time,TemperatureF,DewpointF,PressureIn,WindDirection,WindDirectionDegrees,WindSpeedMPH,WindSpeedGustMPH,Humidity,HourlyPrecipIn,Conditions,Clouds,dailyrainin,SoftwareType,DateUTC
2013-03-25 00:11:00,72.1,71.2,29.61,SE,135,0.0,-999.0,97,-99.99,,,0.00,Acu-Link.com,2013-03-25 04:11:00,
2013-03-25 00:26:00,72.1,71.2,29.61,ESE,112,2.2,-999.0,97,-99.99,,,0.00,Acu-Link.com,2013-03-25 04:26:00,
2013-03-25 01:26:00,72.0,71.4,29.61,WSW,247,0.0,-999.0,98,-99.99,,,0.01,Acu-Link.com,2013-03-25 05:26:00,
2013-03-25 01:41:00,72.1,71.5,29.61,WSW,247,2.2,-999.0,98,-99.99,,,0.01,Acu-Link.com,2013-03-25 05:41:00,
2013-03-25 01:56:00,72.3,71.7,29.62,WSW,247,0.0,-999.0,98,-99.99,,,0.01,Acu-Link.com,2013-03-25 05:56:00,
2013-03-25 02:11:00,72.5,71.9,29.62,West,270,0.0,-999.0,98,-99.99,,,0.01,Acu-Link.com,2013-03-25 06:11:00,
2013-03-25 02:26:00,72.5,71.9,29.62,West,270,0.0,-999.0,98,-99.99,,,0.01,Acu-Link.com,2013-03-25 06:26:00,
2013-03-25 02:42:00,72.7,72.1,29.61,West,270,1.1,-999.0,98,-99.99,,,0.01,Acu-Link.com,2013-03-25 06:42:00,
2013-03-25 02:57:00,72.7,72.1,29.60,West,270,0.0,-999.0,98,-99.99,,,0.01,Acu-Link.com,2013-03-25 06:57:00,
2013-03-25 03:12:00,72.7,72.1,29.61,West,270,5.3,-999.0,98,-99.99,,,0.01,Acu-Link.com,2013-03-25 07:12:00,
2013-03-25 03:27:00,72.5,71.9,29.60,West,270,0.0,-999.0,98,-99.99,,,0.01,Acu-Link.com,2013-03-25 07:27:00,
2013-03-25 03:42:00,72.5,71.9,29.60,West,270,0.0,-999.0,98,-99.99,,,0.01,Acu-Link.com,2013-03-25 07:42:00,
2013-03-25 03:57:00,72.7,72.1,29.60,West,270,2.2,-999.0,98,-99.99,,,0.01,Acu-Link.com,2013-03-25 07:57:00,
2013-03-25 04:12:00,72.7,72.1,29.61,West,270,1.7,-999.0,98,-99.99,,,0.02,Acu-Link.com,2013-03-25 08:12:00,
2013-03-25 04:28:00,72.7,72.1,29.61,NNW,337,1.7,-999.0,98,-99.99,,,0.02,Acu-Link.com,2013-03-25 08:28:00,
2013-03-25 04:43:00,72.7,72.1,29.61,West,270,2.7,-999.0,98,-99.99,,,0.02,Acu-Link.com,2013-03-25 08:43:00,
2013-03-25 04:58:00,72.1,71.5,29.61,NNW,337,5.8,-999.0,98,-99.99,,,0.02,Acu-Link.com,2013-03-25 08:58:00,
2013-03-25 05:13:00,71.4,70.8,29.60,West,270,2.7,-999.0,98,-99.99,,,0.02,Acu-Link.com,2013-03-25 09:13:00,
2013-03-25 05:28:00,70.9,70.3,29.59,West,270,0.0,-999.0,98,-99.99,,,0.02,Acu-Link.com,2013-03-25 09:28:00,
2013-03-25 05:43:00,70.3,69.7,29.60,West,270,1.7,-999.0,98,-99.99,,,0.02,Acu-Link.com,2013-03-25 09:43:00,
2013-03-25 05:58:00,70.2,69.6,29.60,West,270,0.0,-999.0,98,-99.99,,,0.02,Acu-Link.com,2013-03-25 09:58:00,
2013-03-25 06:13:00,69.6,69.0,29.60,West,270,0.0,-999.0,98,-99.99,,,0.02,Acu-Link.com,2013-03-25 10:13:00,
2013-03-25 06:29:00,69.4,68.8,29.61,West,270,0.0,-999.0,98,-99.99,,,0.02,Acu-Link.com,2013-03-25 10:29:00,
2013-03-25 06:44:00,68.7,68.1,29.62,WNW,292,4.7,-999.0,98,-99.99,,,0.02,Acu-Link.com,2013-03-25 10:44:00,
2013-03-25 06:59:00,68.4,67.8,29.63,WNW,292,0.0,-999.0,98,-99.99,,,0.02,Acu-Link.com,2013-03-25 10:59:00,
2013-03-25 07:14:00,68.4,67.8,29.63,NW,315,2.7,-999.0,98,-99.99,,,0.02,Acu-Link.com,2013-03-25 11:14:00,
2013-03-25 07:29:00,68.0,67.4,29.64,WNW,292,2.7,-999.0,98,-99.99,,,0.02,Acu-Link.com,2013-03-25 11:29:00,
2013-03-25 07:44:00,67.3,66.7,29.64,West,270,1.7,-999.0,98,-99.99,,,0.02,Acu-Link.com,2013-03-25 11:44:00,
2013-03-25 07:59:00,66.7,65.8,29.65,West,270,1.7,-999.0,97,-99.99,,,0.02,Acu-Link.com,2013-03-25 11:59:00,
2013-03-25 08:14:00,67.3,66.4,29.68,West,270,0.0,-999.0,97,-99.99,,,0.02,Acu-Link.com,2013-03-25 12:14:00,
2013-03-25 08:29:00,67.5,66.0,29.67,West,270,4.7,-999.0,95,-99.99,,,0.02,Acu-Link.com,2013-03-25 12:29:00,
2013-03-25 08:45:00,68.0,65.9,29.68,West,270,1.7,-999.0,93,-99.99,,,0.02,Acu-Link.com,2013-03-25 12:45:00,
2013-03-25 09:00:00,68.9,66.8,29.70,West,270,1.7,-999.0,93,-99.99,,,0.02,Acu-Link.com,2013-03-25 13:00:00,
2013-03-25 09:15:00,69.4,65.0,29.70,WNW,292,2.7,-999.0,86,-99.99,,,0.02,Acu-Link.com,2013-03-25 13:15:00,
2013-03-25 09:30:00,70.9,64.8,29.71,West,270,2.2,-999.0,81,-99.99,,,0.02,Acu-Link.com,2013-03-25 13:30:00,
2013-03-25 09:45:00,72.0,64.0,29.71,WNW,292,2.2,-999.0,76,-99.99,,,0.02,Acu-Link.com,2013-03-25 13:45:00,
2013-03-25 10:00:00,71.8,64.6,29.71,NW,315,0.0,-999.0,78,-99.99,,,0.02,Acu-Link.com,2013-03-25 14:00:00,
2013-03-25 10:15:00,72.1,64.5,29.72,West,270,3.7,-999.0,77,-99.99,,,0.02,Acu-Link.com,2013-03-25 14:15:00,
2013-03-25 10:30:00,72.3,64.3,29.73,West,270,0.0,-999.0,76,-99.99,,,0.02,Acu-Link.com,2013-03-25 14:30:00,
2013-03-25 10:45:00,72.9,63.7,29.72,North,0,3.2,-999.0,73,-99.99,,,0.02,Acu-Link.com,2013-03-25 14:45:00,
2013-03-25 11:01:00,72.7,63.5,29.73,North,0,2.2,-999.0,73,-99.99,,,0.02,Acu-Link.com,2013-03-25 15:01:00,
2013-03-25 11:16:00,74.1,62.0,29.72,West,270,2.7,-999.0,66,-99.99,,,0.02,Acu-Link.com,2013-03-25 15:16:00,
2013-03-25 11:31:00,74.1,62.8,29.73,West,270,3.2,-999.0,68,-99.99,,,0.02,Acu-Link.com,2013-03-25 15:31:00,
2013-03-25 12:01:00,77.2,56.5,29.71,NNE,22,3.7,-999.0,49,-99.99,,,0.02,Acu-Link.com,2013-03-25 16:01:00,
2013-03-25 12:16:00,78.8,52.4,29.70,WSW,247,5.8,-999.0,40,-99.99,,,0.02,Acu-Link.com,2013-03-25 16:16:00,
2013-03-25 12:31:00,78.4,56.5,29.69,North,0,4.7,-999.0,47,-99.99,,,0.02,Acu-Link.com,2013-03-25 16:31:00,
2013-03-25 13:01:00,80.1,54.9,29.65,WNW,292,2.2,-999.0,42,-99.99,,,0.02,Acu-Link.com,2013-03-25 17:01:00,
2013-03-25 13:16:00,79.9,54.1,29.63,NW,315,3.2,-999.0,41,-99.99,,,0.02,Acu-Link.com,2013-03-25 17:16:00,
2013-03-25 13:32:00,81.0,50.0,29.63,WNW,292,6.3,-999.0,34,-99.99,,,0.02,Acu-Link.com,2013-03-25 17:32:00,
2013-03-25 13:47:00,80.1,50.7,29.63,NNW,337,3.7,-999.0,36,-99.99,,,0.02,Acu-Link.com,2013-03-25 17:47:00,
2013-03-25 14:02:00,81.3,50.2,29.67,NW,315,1.7,-999.0,34,-99.99,,,0.02,Acu-Link.com,2013-03-25 18:02:00,
2013-03-25 14:17:00,81.9,53.0,29.69,WNW,292,5.8,-999.0,37,-99.99,,,0.02,Acu-Link.com,2013-03-25 18:17:00,
2013-03-25 14:32:00,81.9,52.3,29.69,NW,315,6.8,-999.0,36,-99.99,,,0.02,Acu-Link.com,2013-03-25 18:32:00,
2013-03-25 14:47:00,80.8,52.8,29.69,West,270,6.3,-999.0,38,-99.99,,,0.02,Acu-Link.com,2013-03-25 18:47:00,
2013-03-25 15:03:00,81.1,52.3,29.69,West,270,0.0,-999.0,37,-99.99,,,0.02,Acu-Link.com,2013-03-25 19:03:00,
2013-03-25 15:18:00,80.6,53.3,29.68,West,270,1.1,-999.0,39,-99.99,,,0.02,Acu-Link.com,2013-03-25 19:18:00,
2013-03-25 15:33:00,79.9,54.1,29.69,WSW,247,3.2,-999.0,41,-99.99,,,0.02,Acu-Link.com,2013-03-25 19:33:00,
2013-03-25 15:48:00,80.4,53.2,29.68,NW,315,3.2,-999.0,39,-99.99,,,0.02,Acu-Link.com,2013-03-25 19:48:00,
2013-03-25 16:03:00,78.3,53.9,29.68,NNE,22,4.7,-999.0,43,-99.99,,,0.02,Acu-Link.com,2013-03-25 20:03:00,
2013-03-25 16:18:00,78.6,52.2,29.67,WNW,292,3.7,-999.0,40,-99.99,,,0.02,Acu-Link.com,2013-03-25 20:18:00,
2013-03-25 16:34:00,77.0,52.1,29.68,West,270,6.3,-999.0,42,-99.99,,,0.02,Acu-Link.com,2013-03-25 20:34:00,
2013-03-25 16:49:00,77.5,49.9,29.69,West,270,3.2,-999.0,38,-99.99,,,0.02,Acu-Link.com,2013-03-25 20:49:00,
2013-03-25 17:04:00,77.9,50.9,29.69,WNW,292,1.1,-999.0,39,-99.99,,,0.02,Acu-Link.com,2013-03-25 21:04:00,
2013-03-25 17:19:00,78.1,47.4,29.70,West,270,2.7,-999.0,34,-99.99,,,0.02,Acu-Link.com,2013-03-25 21:19:00,
2013-03-25 17:34:00,78.3,42.5,29.71,West,270,3.7,-999.0,28,-99.99,,,0.02,Acu-Link.com,2013-03-25 21:34:00,
2013-03-25 17:49:00,77.7,39.1,29.71,West,270,3.2,-999.0,25,-99.99,,,0.02,Acu-Link.com,2013-03-25 21:49:00,
2013-03-25 18:04:00,77.5,39.9,29.72,NW,315,2.2,-999.0,26,-99.99,,,0.02,Acu-Link.com,2013-03-25 22:04:00,
2013-03-25 18:19:00,79.3,39.4,29.73,West,270,4.2,-999.0,24,-99.99,,,0.02,Acu-Link.com,2013-03-25 22:19:00,
2013-03-25 18:34:00,76.8,40.3,29.74,West,270,5.3,-999.0,27,-99.99,,,0.02,Acu-Link.com,2013-03-25 22:34:00,
2013-03-25 18:50:00,76.1,40.6,29.74,NW,315,2.7,-999.0,28,-99.99,,,0.02,Acu-Link.com,2013-03-25 22:50:00,
2013-03-25 19:05:00,75.4,40.9,29.75,West,270,2.7,-999.0,29,-99.99,,,0.02,Acu-Link.com,2013-03-25 23:05:00,
2013-03-25 19:20:00,74.3,39.1,29.75,West,270,3.2,-999.0,28,-99.99,,,0.02,Acu-Link.com,2013-03-25 23:20:00,
2013-03-25 19:35:00,73.0,38.0,29.76,West,270,1.1,-999.0,28,-99.99,,,0.02,Acu-Link.com,2013-03-25 23:35:00,
2013-03-25 19:50:00,72.0,38.0,29.76,WNW,292,2.2,-999.0,29,-99.99,,,0.02,Acu-Link.com,2013-03-25 23:50:00,
2013-03-25 20:05:00,70.9,37.9,29.77,NW,315,1.1,-999.0,30,-99.99,,,0.02,Acu-Link.com,2013-03-26 00:05:00,
2013-03-25 20:20:00,70.0,37.1,29.78,WSW,247,1.1,-999.0,30,-99.99,,,0.02,Acu-Link.com,2013-03-26 00:20:00,
2013-03-25 20:35:00,69.1,36.4,29.79,NW,315,1.1,-999.0,30,-99.99,,,0.02,Acu-Link.com,2013-03-26 00:35:00,
2013-03-25 20:50:00,68.0,33.7,29.79,NNW,337,2.2,-999.0,28,-99.99,,,0.02,Acu-Link.com,2013-03-26 00:50:00,
2013-03-25 21:06:00,67.3,33.1,29.80,WNW,292,2.2,-999.0,28,-99.99,,,0.02,Acu-Link.com,2013-03-26 01:06:00,
2013-03-25 21:21:00,66.0,33.7,29.81,West,270,0.0,-999.0,30,-99.99,,,0.02,Acu-Link.com,2013-03-26 01:21:00,
2013-03-25 22:06:00,63.3,35.2,29.83,NNW,337,0.0,-999.0,35,-99.99,,,0.02,Acu-Link.com,2013-03-26 02:06:00,
2013-03-25 22:21:00,62.2,36.9,29.84,NNW,337,0.0,-999.0,39,-99.99,,,0.02,Acu-Link.com,2013-03-26 02:21:00,
2013-03-25 22:36:00,61.7,35.8,29.84,WNW,292,0.0,-999.0,38,-99.99,,,0.02,Acu-Link.com,2013-03-26 02:36:00,
2013-03-25 22:52:00,61.9,36.7,29.85,West,270,1.7,-999.0,39,-99.99,,,0.02,Acu-Link.com,2013-03-26 02:52:00,
2013-03-25 23:07:00,61.3,37.4,29.85,West,270,1.7,-999.0,41,-99.99,,,0.02,Acu-Link.com,2013-03-26 03:07:00,
2013-03-25 23:22:00,60.8,39.3,29.86,West,270,1.1,-999.0,45,-99.99,,,0.02,Acu-Link.com,2013-03-26 03:22:00,
2013-03-25 23:37:00,60.8,40.4,29.86,West,270,5.3,-999.0,47,-99.99,,,0.02,Acu-Link.com,2013-03-26 03:37:00,
2013-03-25 23:52:00,60.8,39.9,29.85,West,270,2.7,-999.0,46,-99.99,,,0.02,Acu-Link.com,2013-03-26 03:52:00,